Location: Aiyekoto
(8.4333°N, 4.3667°E)
Time: 12:58:03
(UTC+00:00)

ADEOS - Pass Details

Date: 04 October 2020
Orbit: 792 x 794 km, 98.9° (Epoch: 27 October)

Event Time Altitude Azimuth Distance (km) Brightness Sun altitude
Rises 03:02:27 0° 35° (NE) 3,280 7.2 -37.4°
Reaches altitude 10° 03:05:12 10° 49° (NE) 2,352 6.5 -36.7°
Maximum altitude 03:09:19 24° 101° (ESE) 1,592 5.6 -35.7°
Drops below altitude 10° 03:13:26 10° 154° (SSE) 2,355 6.3 -34.7°
Sets 03:16:10 0° 168° (SSE) 3,285 6.9 -34.0°
